Terminal Aerodrome Forecast
Issued by NWS Charleston, WV

Current Version | Previous Version | Graphics & Text | Print | Product List | Glossary On
Versions: 1 2 3 4 5 6 7 8 9 10 11 12 13 14 15 16 17 18 19
000
FTUS41 KRLX 260200 AAA
TAFPKB
TAF AMD
KPKB 260258Z 2603/2624 04006KT P6SM SKC
     FM261000 02005KT P6SM BKN030
     FM261500 36004KT P6SM OVC020
     FM262000 33006KT 5SM -SN BR BKN015=

USA.gov is the U.S. government's official web portal to all federal, state and local government web resources and services.